DECAYED

STARLINK-5047, 55409 (Decayed)

Orbit data source: Space-Track

STARLINK-5047, 55409 was a payload satellite owned by SpaceX/Seattle (US) in LEO that was launched on Tue, 31 Jan 2023 UTC via an FALCON 9 launch vehicle from the Air Force Western Test Range (AFWTR). Payload-class satellites include a variety of spacecraft equipped with specific instruments for various scientific and technological missions. These include communications satellites like Starlink; space stations such as the ISS; scientific satellites like the Hubble; Earth observation satellites from companies like Planet Labs, Umbra, and HawkEye 360; GPS; miniature CubeSats for education and research; and military/defense satellites.

Not visible in the next 10 days
Identifier
55409, 2023-014U
Orbit
Decayed
Country
Flag of USUS
Related business
Manufacturer
SpaceX/Seattle
Mission
Decayed Commercial Communications
Bus & Motor
STARLINK, Unknown motor
Mass
305 kg wet, ~290 kg dry
Launch date (UTC)
2023-01-31 (3 years ago)
Launch vehicle
FALCON 9
Launch site
Air Force Western Test Range (AFWTR)
Object type
Payload
Rocket body
Debris
Shape & HBR
Box + 1 Pan, 10.1 m
Radar Cross Section
13.562 m², Large (>1 m²)

Expand to show TLE details & history
Last TLE update: 1 year ago

TLE from 1 year ago
0 STARLINK-5047
1 55409U 23014U   25101.52286463  .10426489  44261-5  30314-3 0  9998
2 55409  69.9897 167.8033 0010964 259.1911 231.2457 16.44347078121708
Epoch: 2025-04-11T12:32Z
TLE epoch observation values (Epoch: 2025-04-11T12:32:55.504Z)
Latitude
45.86095°
Longitude
-62.31616°
Altitude
165.227 km
Speed
7.809 km/s
True Right ascension
21h 43m 34s
True Declination
45° 40' 24"
Sunlit
Object was in daylight at epoch
Visualization orbit readout
Latitude
Unknown
Longitude
Unknown
Altitude
Unknown
Speed
Unknown
Apparent Right ascension
Unknown
Apparent Declination
Unknown
Sunlit
N/A
Visualization observer readout
Local Sidereal Time
21:25:08
Azimuth
Unknown
Elevation
Unknown
Doppler factor
Unknown
Orbital elements
Apogee altitude
159.242 km
Perigee altitude
144.922 km
Semi-major axis
6,530.219 km
Eccentricity
0.0011
Inclination
69.9897°
RAAN
167.8033°
Arg. of periapsis
259.1911°
True anomaly
231.14781°
Mean anomaly
231.2457°
Eccentric anomaly
231.19674°
Mean motion
4.11293 °/min
Orbital period
87.53 mins
BSTAR
0.00030314
Loading maneuver chart data...
Computing Atmospheric mass density...

Documentation

Showing up to 5 results
|